Tracking 25648 objects as of 17-May-2022
HD Live streaming from Space Station
objects crossing your sky now

UPPER FREE FLYER

Track UPPER FREE FLYER now!
10-day predictions


NORAD ID: 43763
Int'l Code: 2018-099F
Perigee: 575.4 km
Apogee: 593.9 km
Inclination: 97.6 °
Period: 96.2 minutes
Semi major axis: 6955 km
RCS: Unknown
Launch date: December 3, 2018
Source: United States (US)
Launch site: AIR FORCE WESTERN TEST RANGE (AFWTR)
aabbcc
Your satellite tracking list
Your tracking list is empty




NASA's NSSDC Master Catalog

Two Line Element Set (TLE):
1 43763U 18099F   22136.53787529  .00002969  00000-0  26546-3 0  9992
2 43763  97.6219 204.8042 0013320  20.7372 339.4388 14.96565145188325
Source of the keplerian elements: AFSPC